Location: Sperry Observatory
(40.6664°N, 74.3236°W)
Time: 21:34:35
(UTC-05:00)

UOSAT-12 - Visible Passes

Search period start: 29 January 2015 00:00
Search period end: 08 February 2015 00:00
Orbit: 594 x 662 km, 64.6° (Epoch: 29 January)

Date Brightness Start Highest point End Pass type
(mag) Time Alt. Az. Time Alt. Az. Time Alt. Az.
29 Jan 9.4 18:38:40 10° NNE 18:39:04 11° NNE 18:39:04 11° NNE visible
30 Jan 9.1 18:57:28 10° N 18:59:14 16° NNE 18:59:14 16° NNE visible
31 Jan 8.7 19:17:10 10° NNW 19:19:31 25° N 19:19:31 25° N visible
01 Feb 9.1 17:58:50 10° N 18:00:51 13° NE 18:02:34 11° ENE visible
01 Feb 8.4 19:37:12 10° NNW 19:39:56 34° NNW 19:39:56 34° NNW visible
02 Feb 8.4 18:18:01 10° N 18:21:40 22° NE 18:23:09 19° ENE visible
02 Feb 8.6 19:57:35 10° NW 20:00:32 35° WNW 20:00:32 35° WNW visible
03 Feb 7.5 18:37:48 10° NNW 18:42:16 42° NE 18:44:00 29° E visible
03 Feb 9.4 20:18:30 10° WNW 20:21:23 22° W 20:21:23 22° W visible
04 Feb 7.0 18:57:55 10° NNW 19:02:38 88° NE 19:05:10 27° SSE visible
05 Feb 8.3 19:18:24 10° NW 19:22:48 41° WSW 19:26:51 11° S visible
06 Feb 7.4 17:58:27 10° NNW 18:03:01 50° NE 18:07:31 10° SE visible
06 Feb 9.7 19:39:32 10° WNW 19:42:50 19° WSW 19:45:57 10° SSW visible
07 Feb 7.3 18:18:38 10° NW 18:23:21 77° WSW 18:27:55 10° SSE visible
